AKST,Max TemperatureF,Mean TemperatureF,Min TemperatureF,Max Dew PointF,MeanDew PointF,Min DewpointF,Max Humidity, Mean Humidity, Min Humidity, Max Sea Level PressureIn, Mean Sea Level PressureIn, Min Sea Level PressureIn, Max VisibilityMiles, Mean VisibilityMiles, Min VisibilityMiles, Max Wind SpeedMPH, Mean Wind SpeedMPH, Max Gust SpeedMPH,PrecipitationIn, CloudCover, Events, WindDirDegrees
2013-2-1,44,43,42,43,42,41,100,96,93,30.24,30.21,30.18,10,6,2,20,12,26,1.25,8,Rain,141
2013-2-2,45,43,41,43,42,39,97,93,87,30.18,30.09,30.02,10,6,2,24,16,33,1.62,8,Rain,137
2013-2-3,43,39,35,41,38,33,97,90,76,30.04,29.92,29.81,10,8,4,18,10,30,1.17,7,Rain,141
2013-2-4,41,37,33,35,33,30,96,88,70,29.97,29.79,29.49,10,9,2,6,3,,0.36,6,Rain-Snow,170
2013-2-5,44,38,33,39,36,34,100,92,76,29.48,29.42,29.35,10,9,5,17,3,34,0.50,8,Rain,230
2013-2-6,41,38,35,39,36,35,100,94,86,29.75,29.63,29.48,10,10,7,12,2,,0.16,7,Rain,207
2013-2-7,37,36,35,37,35,34,100,94,89,30.08,29.94,29.75,10,9,7,15,7,20,0.14,7,Rain,132
2013-2-8,43,40,37,43,41,36,100,98,93,30.18,30.05,29.98,10,7,3,21,13,29,0.94,8,Rain,139
2013-2-9,44,42,41,44,42,41,100,100,100,30.29,30.24,30.18,10,6,2,17,6,22,0.33,8,Rain,146
2013-2-10,46,42,39,46,42,39,100,98,90,30.25,30.17,30.12,10,9,3,18,12,26,0.34,8,Rain,141
2013-2-11,41,40,39,41,39,37,100,98,87,30.12,30.03,29.79,10,9,6,17,10,25,0.61,8,Rain,136
2013-2-12,43,40,36,43,38,32,100,94,79,30.21,29.82,29.61,10,8,6,20,12,26,0.71,8,Rain,158
2013-2-13,39,36,34,38,35,32,100,91,73,30.33,30.29,30.23,10,10,8,20,5,25,0.05,7,Rain,147
2013-2-14,46,42,37,47,41,36,100,100,93,30.25,30.19,30.12,10,5,2,22,12,34,1.11,8,Rain,146
2013-2-15,46,44,41,47,44,41,100,98,93,30.14,30.02,29.94,10,7,3,24,17,40,1.79,8,Rain,129
2013-2-16,43,40,36,40,37,33,100,89,71,30.23,30.11,29.97,10,10,7,8,5,,0.02,7,Rain,322
2013-2-17,37,36,34,38,36,33,100,97,89,30.22,30.00,29.82,10,9,5,23,8,29,0.67,8,Rain,149
2013-2-18,39,36,33,39,36,33,100,99,93,29.87,29.78,29.73,10,9,0,14,6,,0.24,8,Fog-Rain,172
2013-2-19,41,37,33,39,36,33,100,98,86,29.96,29.88,29.74,10,10,4,13,4,,0.11,8,Rain,145
2013-2-20,43,38,34,39,37,34,100,96,76,29.71,29.61,29.40,10,8,2,20,13,28,1.36,8,Rain-Snow,143
2013-2-21,41,37,33,38,35,34,100,98,82,29.56,29.41,29.14,10,7,2,31,12,38,1.17,8,Rain-Snow,151
2013-2-22,42,38,35,41,38,31,100,96,73,29.71,29.17,28.97,10,9,3,18,11,30,0.67,8,Rain,126
2013-2-23,37,35,33,37,34,29,100,94,70,29.96,29.86,29.75,10,7,2,16,9,23,1.43,7,Rain-Snow,148
2013-2-24,42,36,30,38,35,30,100,97,77,29.87,29.83,29.75,10,10,4,10,3,,0.01,5,Rain,177
2013-2-25,39,34,30,36,34,30,100,92,76,30.04,29.95,29.85,10,10,10,29,9,37,0.02,5,Rain,128
2013-2-26,39,37,35,38,36,34,100,94,87,29.87,29.75,29.67,10,10,6,22,16,32,0.61,8,Rain-Thunderstorm,150
2013-2-27,41,38,35,40,38,35,100,98,93,29.92,29.80,29.70,10,8,3,29,15,39,1.02,8,Rain,141
2013-2-28,42,39,36,40,38,35,100,92,81,29.99,29.78,29.56,10,9,3,25,13,37,0.66,7,Rain,147